OBJECT AJ, 64560

Orbit data source: Space-Track

You're viewing an Uncataloged Satellite

Recently launched and/or uncataloged satellites may have evolving metadata. Metadata may include but not limited to: Owner, Maufacturer, Bus, Motor, and Mission.

OBJECT AJ, 64560 is a satellite in SSO that was launched on Mon, 23 Jun 2025 UTC via an FALCON 9 launch vehicle from the Air Force Western Test Range (AFWTR). Unknown objects in Earth's orbit typically refer to objects detected orbiting the Earth but have not yet been identified or cataloged. These objects could be anything from previously untracked satellites, spent rocket stages, debris from satellite collisions, or even natural meteoroids temporarily captured by Earth's gravity.

Loading next visibility...
Identifier
64560, 2025-135AJ
Orbit
SSO
Country
Flag of TBDTBD
Related business
None
Manufacturer
Unknown
Mission
Operational Commercial Communications
Bus & Motor
Unknown
Mass
Unknown
Launch date (UTC)
2025-06-23 (11 months ago)
Launch vehicle
FALCON 9
Launch site
Air Force Western Test Range (AFWTR)
Object type
Unknown
Shape & HBR
Box, 0.1 m
Radar Cross Section
0.080 m², Medium (>0.1 m² and < 1m²)

Expand to show TLE details & history
Last TLE update: 3 days ago

TLE from 3 days ago
0 OBJECT AJ
1 64560U 25135AJ  26155.09326878  .00004546  00000-0  41552-3 0  9998
2 64560  97.7728 269.8828 0000854  72.0410 288.0904 14.95509952 51957
Epoch: 2026-06-04T02:14Z
TLE epoch observation values (Epoch: 2026-06-04T02:14:18.422Z)
Latitude
-0.00001°
Longitude
-16.23644°
Altitude
583.652 km
Speed
7.569 km/s
True Right ascension
17h 59m 31s
True Declination
0° 00' 00"
Sunlit
Object was in full shadow at epoch
Visualization orbit readout
Latitude
Unknown
Longitude
Unknown
Altitude
Unknown
Speed
Unknown
Apparent Right ascension
Unknown
Apparent Declination
Unknown
Sunlit
N/A
Visualization observer readout
Local Sidereal Time
03:26:55
Azimuth
Unknown
Elevation
Unknown
Doppler factor
Unknown
Orbital elements
Apogee altitude
578.399 km
Perigee altitude
577.211 km
Semi-major axis
6,955.942 km
Eccentricity
0.00009
Inclination
97.7728°
RAAN
269.8828°
Arg. of periapsis
72.041°
True anomaly
288.0811°
Mean anomaly
288.0904°
Eccentric anomaly
288.08575°
Mean motion
3.74119 °/min
Orbital period
96.23 mins
BSTAR
0.00041552
Loading maneuver chart data...
Computing Atmospheric mass density...
Loading historical data...
Loading historical data...
Loading historical data...
Loading historical data...
Loading historical data...
Loading historical data...
Loading historical data...

Documentation

Showing up to 5 results
|